N2RDT Weather Reports


Display with metric or nautical units.
time (UTC)temp
F
wind
direction
speed
MPH
gust
MPH
rain 1hr
in
rain 24hr
in
rain mn
in
humidity
%
barometer
mb
20260502222733 55 61 0.0 2.0 0.00 0.18 0.18 83 1012.1
20260502222230 55 113 0.0 1.0 0.00 0.18 0.18 84 1012.1
20260502221726 55 96 1.0 2.0 0.00 0.18 0.18 81 1012.0
20260502221223 55 89 0.0 1.0 0.00 0.18 0.18 82 1011.9
20260502220719 55 64 1.0 2.0 0.00 0.18 0.18 81 1011.7
20260502220215 55 20 0.0 3.0 0.00 0.18 0.18 81 1011.7
20260502215712 55 48 2.0 2.0 0.00 0.18 0.18 81 1011.7
20260502215209 55 31 3.0 4.0 0.00 0.18 0.18 80 1011.6
20260502214707 55 56 3.0 5.0 0.00 0.18 0.18 80 1011.9
20260502214204 56 46 3.0 3.0 0.00 0.18 0.18 80 1011.9
20260502213701 56 69 2.0 2.0 0.00 0.18 0.18 80 1011.8
20260502213158 56 63 1.0 3.0 0.00 0.18 0.18 78 1011.9
20260502212656 56 57 1.0 3.0 0.00 0.18 0.18 77 1011.8
20260502212155 56 7 0.0 2.0 0.00 0.18 0.18 80 1012.0
20260502211650 56 46 2.0 4.0 0.00 0.18 0.18 80 1011.8
20260502211147 56 47 2.0 3.0 0.00 0.18 0.18 80 1011.9
20260502210644 56 45 2.0 3.0 0.00 0.18 0.18 80 1011.8
20260502210141 56 21 2.0 4.0 0.00 0.18 0.18 80 1011.8
20260502205638 56 340 0.0 2.0 0.00 0.18 0.18 81 1011.9
20260502205135 55 63 4.0 4.0 0.00 0.18 0.18 81 1012.0
20260502204632 56 75 1.0 4.0 0.00 0.18 0.18 82 1012.2
20260502204129 56 43 3.0 5.0 0.00 0.18 0.18 80 1012.0
20260502203626 56 57 2.0 4.0 0.00 0.18 0.18 80 1012.0
20260502203124 56 312 1.0 4.0 0.00 0.18 0.18 82 1012.0
20260502202619 55 68 2.0 5.0 0.00 0.18 0.18 81 1011.9
20260502202117 56 34 2.0 5.0 0.00 0.18 0.18 81 1012.0
20260502201613 55 61 3.0 6.0 0.00 0.18 0.18 81 1011.9
20260502201110 55 27 1.0 7.0 0.00 0.18 0.18 83 1011.8
20260502200606 56 20 6.0 7.0 0.00 0.18 0.18 81 1012.0
20260502200104 57 326 4.0 10.0 0.00 0.18 0.18 78 1012.1
20260502195602 57 162 2.0 4.0 0.00 0.18 0.18 78 1012.0
20260502195057 57 27 2.0 3.0 0.00 0.18 0.18 78 1012.2
20260502194554 56 334 3.0 6.0 0.00 0.18 0.18 79 1012.0
20260502194050 56 318 3.0 4.0 0.00 0.18 0.18 79 1012.2
20260502193548 56 48 5.0 6.0 0.00 0.18 0.18 80 1012.4
20260502193044 56 288 1.0 4.0 0.00 0.18 0.18 80 1012.5
20260502192540 56 27 6.0 8.0 0.00 0.18 0.18 80 1012.3
20260502192038 55 350 2.0 11.0 0.00 0.18 0.18 81 1012.4
20260502191534 55 49 1.0 6.0 0.00 0.18 0.18 82 1012.5
20260502191032 55 23 2.0 6.0 0.00 0.18 0.18 82 1012.4
20260502190529 55 333 3.0 3.0 0.00 0.18 0.18 83 1012.5
20260502190026 55 49 4.0 5.0 0.00 0.18 0.18 82 1012.4
20260502185521 55 2 2.0 10.0 0.00 0.18 0.18 84 1012.8
20260502185018 55 36 4.0 9.0 0.00 0.18 0.18 84 1012.6
20260502184514 55 298 2.0 9.0 0.00 0.18 0.18 85 1012.7
20260502184010 55 36 4.0 9.0 0.00 0.18 0.18 85 1012.8
20260502183507 55 22 6.0 8.0 0.00 0.18 0.18 85 1012.6
20260502183001 56 20 5.0 10.0 0.00 0.18 0.18 82 1012.9
20260502182457 55 334 3.0 4.0 0.00 0.18 0.18 85 1013.0
20260502181954 55 5 0.0 4.0 0.00 0.18 0.18 87 1013.1
20260502181452 54 13 2.0 6.0 0.00 0.18 0.18 87 1013.2
20260502180951 54 25 4.0 7.0 0.00 0.18 0.18 88 1013.0
20260502180447 53 31 4.0 8.0 0.00 0.18 0.18 88 1013.1
20260502170406 53 27 1.0 2.0 0.00 0.18 0.18 92 1013.6
20260502163849 53 22 3.0 3.0 0.00 0.17 0.17 91 1013.9
20260502163346 53 287 2.0 3.0 0.02 0.17 0.17 92 1014.1
20260502162844 53 52 2.0 3.0 0.02 0.17 0.17 92 1014.3
20260502162340 52 347 3.0 4.0 0.00 0.17 0.17 91 1014.3
20260502161837 52 7 4.0 6.0 0.02 0.17 0.17 90 1014.3
20260502161333 52 329 2.0 3.0 0.00 0.17 0.17 91 1014.2
20260502160831 52 55 2.0 4.0 0.00 0.17 0.17 91 1014.1
20260502160330 52 25 1.0 7.0 0.00 0.17 0.17 90 1014.3
20260502152259 52 328 2.0 3.0 0.00 0.16 0.16 92 1014.0
20260502151756 52 339 2.0 5.0 0.05 0.16 0.16 91 1014.0
20260502151253 52 318 2.0 4.0 0.02 0.16 0.16 91 1014.1
20260502150751 52 329 3.0 4.0 0.02 0.15 0.15 91 1014.3
20260502150247 52 320 4.0 5.0 0.02 0.15 0.15 91 1014.3
20260502130636 52 63 2.0 6.0 0.05 0.06 0.06 92 1013.2
20260502130134 52 298 2.0 4.0 0.07 0.05 0.05 92 1013.2
20260502123620 52 6 4.0 4.0 0.00 0.03 0.03 91 1012.8
20260502123115 52 267 2.0 3.0 0.02 0.03 0.03 91 1012.6
20260502122612 52 15 3.0 4.0 0.02 0.03 0.03 90 1012.6
20260502122109 52 300 3.0 5.0 0.00 0.03 0.03 90 1012.6
20260502121607 52 39 3.0 4.0 0.02 0.03 0.03 90 1012.7
20260502121105 52 12 3.0 6.0 0.02 0.03 0.03 90 1012.7
20260502120600 52 324 3.0 3.0 0.02 0.02 0.02 90 1012.7
20260502115556 52 49 4.0 4.0 0.00 0.02 0.02 89 1012.8
20260502115051 52 346 2.0 4.0 0.02 0.02 0.02 89 1012.8
20260502114548 52 9 2.0 4.0 0.02 0.02 0.02 89 1012.8
20260502114044 52 315 3.0 4.0 0.00 0.02 0.02 89 1012.7
20260502113542 52 330 0.0 5.0 0.02 0.02 0.02 89 1012.8
20260502113041 52 19 2.0 4.0 0.02 0.02 0.02 89 1013.0
20260502112538 52 300 1.0 4.0 0.00 0.01 0.01 88 1012.9
20260502112036 52 9 2.0 3.0 0.02 0.01 0.01 88 1012.9
20260502111532 52 3 2.0 3.0 0.02 0.01 0.01 88 1012.8
20260502111030 52 39 2.0 3.0 0.02 0.01 0.01 87 1013.0
20260502110527 53 7 0.0 3.0 0.02 0.01 0.01 86 1012.9
20260502110025 53 345 2.0 4.0 0.02 0.00 0.00 85 1013.0
20260502105522 53 272 0.0 3.0 0.02 0.00 0.00 84 1013.1
20260502105020 53 302 0.0 2.0 0.00 0.00 0.00 83 1013.1
20260502104516 54 82 2.0 4.0 0.00 0.00 0.00 81 1012.9
20260502104014 54 313 2.0 2.0 0.00 0.00 0.00 81 1013.0
20260502103511 54 103 2.0 3.0 0.00 0.00 0.00 80 1013.0
20260502103009 54 137 3.0 3.0 0.00 0.00 0.00 80 1013.0
20260502102505 54 184 0.0 3.0 0.00 0.00 0.00 82 1012.9
20260502102003 54 184 0.0 5.0 0.00 0.00 0.00 82 1012.8
20260502101500 54 307 3.0 6.0 0.00 0.00 0.00 82 1012.9
20260502100959 53 5 1.0 2.0 0.00 0.00 0.00 85 1012.9
20260502100457 53 356 2.0 2.0 0.00 0.00 0.00 86 1012.8
20260502091431 52 142 1.0 2.0 0.00 0.00 0.00 90 1012.9
20260502090928 52 80 2.0 2.0 0.00 0.00 0.00 91 1012.8
20260502090426 52 114 2.0 2.0 0.00 0.00 0.00 91 1012.6
20260502071320 51 33 1.0 1.0 0.00 0.00 0.00 93 1012.3
20260502070818 51 33 1.0 1.0 0.00 0.00 0.00 93 1012.4
20260502070316 51 33 1.0 1.0 0.00 0.00 0.00 93 1012.0
20260502065815 51 33 1.0 2.0 0.00 0.00 0.00 93 1012.2
20260502065312 51 30 1.0 2.0 0.00 0.00 0.00 93 1012.2
20260502064810 51 8 1.0 2.0 0.00 0.00 0.00 93 1012.4
20260502064308 51 51 2.0 2.0 0.00 0.00 0.00 93 1012.4
20260502063805 51 52 2.0 2.0 0.00 0.00 0.00 93 1012.4
20260502063303 51 46 2.0 2.0 0.00 0.00 0.00 93 1012.4
20260502062759 51 39 2.0 2.0 0.00 0.00 0.00 93 1012.6
20260502062257 51 4 2.0 2.0 0.00 0.00 0.00 93 1012.6
20260502061756 51 34 2.0 2.0 0.00 0.00 0.00 93 1012.7
20260502061253 51 14 2.0 3.0 0.00 0.00 0.00 93 1012.6
20260502060753 51 27 2.0 3.0 0.00 0.00 0.00 93 1012.5
20260502060249 51 46 2.0 2.0 0.00 0.00 0.00 93 1012.5
20260502055747 51 53 2.0 2.0 0.00 0.00 0.00 92 1012.5
20260502055244 51 53 2.0 2.0 0.00 0.00 0.00 92 1012.5
20260502054744 51 53 2.0 2.0 0.00 0.00 0.00 92 1012.6
20260502054241 51 53 2.0 2.0 0.00 0.00 0.00 92 1012.8
20260502053738 51 53 2.0 2.0 0.00 0.00 0.00 92 1012.7
20260502053235 51 46 1.0 1.0 0.00 0.00 0.00 91 1012.8
20260502052733 51 46 1.0 1.0 0.00 0.00 0.00 91 1012.7
20260502052231 51 21 0.0 1.0 0.00 0.00 0.00 92 1013.1
20260502051729 52 26 2.0 3.0 0.00 0.00 0.00 92 1012.9
20260502051227 52 26 2.0 3.0 0.00 0.00 0.00 92 1012.9
20260502050723 51 70 2.0 3.0 0.00 0.00 0.00 91 1013.2
20260502050219 51 70 2.0 3.0 0.00 0.00 0.00 91 1013.2
20260502045716 51 70 2.0 3.0 0.00 0.00 0.00 91 1013.1
20260502045214 51 70 2.0 3.0 0.00 0.00 0.00 91 1013.0
20260502044710 51 75 2.0 2.0 0.00 0.00 0.00 91 1013.1
20260502044206 51 119 2.0 2.0 0.00 0.00 0.00 91 1012.8
20260502043704 51 119 2.0 2.0 0.00 0.00 0.00 91 1013.0
20260502043201 51 119 2.0 2.0 0.00 0.00 0.00 91 1013.0
20260502042700 51 119 2.0 2.0 0.00 0.00 0.00 91 1013.2
20260502042158 51 119 2.0 2.0 0.00 0.00 0.00 91 1013.3
20260502041655 51 77 2.0 2.0 0.00 0.00 0.00 91 1013.4
20260502041152 51 55 2.0 3.0 0.00 0.00 0.00 91 1013.3
20260502040649 51 55 2.0 3.0 0.00 0.00 0.00 91 1013.2
20260502040147 51 66 4.0 4.0 0.00 0.00 0.00 92 1013.3
20260502035642 51 66 4.0 4.0 0.00 0.00 0.00 92 1013.3
20260502035139 51 66 4.0 4.0 0.00 0.00 0.00 92 1013.4
20260502034637 51 66 4.0 4.0 0.00 0.00 0.00 92 1013.2
20260502034136 51 66 4.0 4.0 0.00 0.00 0.00 92 1013.3
20260502033633 51 66 4.0 4.0 0.00 0.00 0.00 92 1013.3
20260502033131 51 72 4.0 4.0 0.00 0.00 0.00 92 1013.4
20260502032626 51 72 4.0 4.0 0.00 0.00 0.00 92 1013.3
20260502032123 51 80 3.0 4.0 0.00 0.00 0.00 92 1013.4
20260502031621 51 74 2.0 3.0 0.00 0.00 0.00 92 1013.3
20260502031119 51 74 2.0 3.0 0.00 0.00 0.00 92 1013.3
20260502030618 51 82 2.0 3.0 0.00 0.00 0.00 92 1013.3
20260502030115 52 99 2.0 3.0 0.00 0.00 0.00 89 1013.6
20260502025612 52 99 2.0 3.0 0.00 0.00 0.00 89 1013.5
20260502025110 52 99 2.0 3.0 0.00 0.00 0.00 89 1013.6
20260502024608 52 99 2.0 3.0 0.00 0.00 0.00 89 1013.8
20260502024106 52 99 2.0 3.0 0.00 0.00 0.00 89 1013.4
20260502023603 52 99 2.0 3.0 0.00 0.00 0.00 89 1013.7
20260502023100 52 99 2.0 3.0 0.00 0.00 0.00 89 1013.7
20260502022556 52 99 2.0 3.0 0.00 0.00 0.00 89 1013.8
20260502022054 52 99 2.0 3.0 0.00 0.00 0.00 89 1013.7
20260502021551 52 99 2.0 3.0 0.00 0.00 0.00 89 1013.8
20260502021048 52 99 2.0 3.0 0.00 0.00 0.00 89 1013.8
20260502020546 52 92 3.0 3.0 0.00 0.00 0.00 89 1013.7
20260502020042 52 86 2.0 2.0 0.00 0.00 0.00 88 1013.8
20260502015540 52 75 2.0 3.0 0.00 0.00 0.00 87 1013.8
20260502015036 52 54 2.0 3.0 0.00 0.00 0.00 88 1013.7
20260502014533 52 54 2.0 3.0 0.00 0.00 0.00 88 1013.7
20260502014030 52 54 2.0 3.0 0.00 0.00 0.00 88 1013.8
20260502013526 52 54 2.0 3.0 0.00 0.00 0.00 88 1013.9
20260502013022 52 54 2.0 3.0 0.00 0.00 0.00 88 1013.7
20260502012520 52 67 4.0 5.0 0.00 0.00 0.00 85 1013.8
20260502012018 52 67 4.0 5.0 0.00 0.00 0.00 85 1013.7
20260502011514 52 67 4.0 5.0 0.00 0.00 0.00 85 1013.6
20260502011010 52 67 4.0 5.0 0.00 0.00 0.00 85 1013.4
20260502010508 52 67 4.0 5.0 0.00 0.00 0.00 85 1013.5
20260502010004 52 67 4.0 5.0 0.00 0.00 0.00 85 1013.3
20260502005502 52 67 4.0 5.0 0.00 0.00 0.00 85 1013.6
20260502004959 52 67 4.0 5.0 0.00 0.00 0.00 85 1013.4
20260502004455 52 67 4.0 5.0 0.00 0.00 0.00 85 1013.2
20260502003952 52 67 4.0 5.0 0.00 0.00 0.00 85 1013.3
20260502003449 52 67 4.0 5.0 0.00 0.00 0.00 85 1013.1
20260502002945 52 73 4.0 5.0 0.00 0.00 0.00 85 1013.0
20260502002443 52 71 3.0 3.0 0.00 0.00 0.00 84 1013.0
20260502001940 53 69 1.0 2.0 0.00 0.00 0.00 83 1013.0
20260502001438 53 97 2.0 2.0 0.00 0.00 0.00 81 1013.2
20260502000935 53 97 2.0 2.0 0.00 0.00 0.00 81 1013.1
20260502000434 53 97 2.0 2.0 0.00 0.00 0.00 81 1013.2
20260501235929 53 75 3.0 3.0 0.00 0.00 0.00 80 1013.1
20260501235425 53 71 4.0 5.0 0.00 0.00 0.00 80 1013.0
20260501234920 53 72 4.0 5.0 0.00 0.00 0.00 79 1012.9
20260501234418 53 69 6.0 6.0 0.00 0.00 0.00 78 1013.0
20260501233916 53 75 3.0 5.0 0.00 0.00 0.00 78 1012.9
20260501233413 54 78 2.0 6.0 0.00 0.00 0.00 77 1013.1
20260501232909 54 82 4.0 5.0 0.00 0.00 0.00 76 1013.1
20260501232406 55 97 3.0 5.0 0.00 0.00 0.00 71 1013.0
20260501231903 55 97 3.0 5.0 0.00 0.00 0.00 71 1013.1
20260501231401 55 97 3.0 5.0 0.00 0.00 0.00 71 1013.0
20260501230859 55 93 2.0 5.0 0.00 0.00 0.00 72 1013.0
20260501230358 55 83 6.0 6.0 0.00 0.00 0.00 71 1013.0
20260501225855 55 68 4.0 9.0 0.00 0.00 0.00 71 1013.0
20260501225353 56 79 5.0 6.0 0.00 0.00 0.00 70 1013.0
20260501224848 56 68 5.0 5.0 0.00 0.00 0.00 69 1013.1
20260501224346 56 69 4.0 7.0 0.00 0.00 0.00 69 1013.5
20260501223842 56 70 6.0 8.0 0.00 0.00 0.00 70 1013.4
20260501223339 55 93 4.0 8.0 0.00 0.00 0.00 71 1013.5